Regional Weather Roundup
Issued by NWS Newport/Morehead, NC

Current Version | Previous Version | Graphics & Text | Print | Product List | Glossary Off
Versions: 1 2 3 4 5 6 7 8 9 10 11 12 13 14 15 16 17 18 19 20 21 22 23 24 25 26 27 28 29 30 31 32 33 34 35 36 37 38 39 40 41 42 43 44 45 46 47 48 49 50

736
ASUS42 KMHX 240625
RWRMHX
WEATHER ROUNDUP FOR EASTERN NORTH CAROLINA
NATIONAL WEATHER SERVICE NEWPORT/MOREHEAD CITY NC
200 AM EDT FRI MAR 24 2017

NOTE: "FAIR" INDICATES FEW OR NO CLOUDS BELOW 12,000 FEET
WITH NO SIGNIFICANT WEATHER AND/OR OBSTRUCTIONS TO VISIBILITY

NCZ015>017-031-032-045>047-102-103-240700-
NORTH COAST

CITY           SKY/WX    TMP DP  RH WIND       PRES   REMARKS
EDENTON        CLEAR     37  31  80 CALM      30.58F
ELIZABETH CITY CLEAR     33  29  85 SE6       30.59F
KITTY HAWK     NOT AVBL
MANTEO         CLEAR     38  30  72 E5        30.58F

$$

NCZ045>047-081-094-103-104-240700-
CENTRAL COAST

CITY           SKY/WX    TMP DP  RH WIND       PRES   REMARKS
FRISCO         CLEAR     44  35  70 NE8       30.58S

$$

NCZ095-097-098-100-101-240700-
SOUTHERN COAST

CITY           SKY/WX    TMP DP  RH WIND       PRES   REMARKS
BEAUFORT       CLEAR     41  33  73 NE6       30.55F
CEDAR ISLAND   NOT AVBL
JACKSONVILLE   CLEAR     40  32  73 E8        30.54F
PINEY ISLAND   CLEAR    N/A N/A N/A NE8       30.56F
WILMINGTON     CLEAR     36  33  89 NE6       30.53F


$$

NCZ011>013-027>030-043-044-078>080-089-090>093-098-240700-
COASTAL PLAIN

CITY           SKY/WX    TMP DP  RH WIND       PRES   REMARKS
AHOSKIE          N/A     31  27  84 CALM      30.57F
CLINTON        CLEAR     38  31  74 CALM      30.55S
ELIZABETHTOWN  CLEAR     38  33  80 CALM      30.53F
GOLDSBORO      CLEAR     37  35  93 E3        30.54F
GREENVILLE     CLEAR     34  30  86 CALM      30.56F
HAVELOCK       CLEAR     38  31  76 VRB2      30.56F
KENANSVILLE    CLEAR     34  30  86 CALM      30.55F
KINSTON        CLEAR     37  32  84 NE5       30.57R
NEW BERN       CLEAR     36  31  82 NE5       30.57F
RICHLANDS      CLEAR     33  30  88 NE3       30.55F
ROCKY MOUNT    CLEAR     37  32  82 SE3       30.56S
WASHINGTON     CLEAR     32  28  84 CALM      30.58F
WHITEVILLE     CLEAR     38  34  85 CALM      30.52F

$$

AMZ130-135-150-152-154-156-158-170-250-252-270-ANZ085-086-088-633-658-670-240700-
MARINE OBSERVATIONS

STATION/POSITION TIME  TEMP    WIND        PRES    WAVE   SWELL
                       AIR SEA DIR/SP/G            HT/PER HT/PER
                 (UTC) (F)     (DEG/KT/KT) (MB)    (FT/S) (FT/S)
CHESAPEAKE LIGHT NOT AVBL
64 E VA BEACH    0550   44 49  100/  6/ 10 1035.7    3/ 7   3/ 7
DUCK             0600   41 48  100/ 11/ 12 1035.0
2 E DUCK         0600      47                N/A     3/ 7
OREGON INLET     0600   42 49   50/  7/ 10 1035.8
13E OREGON INLT  NOT AVBL
HATTERAS CG      0600   44 52   30/  8/ 11 1034.7
DIAMOND BUOY     0550   54 71   50/  6/ 10 1035.1    6/11   7/11
CAPE LOOKOUT     0600   44      20/ 12/ 14 1033.7
BEAUFORT LAB     0600   41 51   20/  6/  8 1033.5
30 SE NEW RVR IN 0608   58     100/ 10/ 16 1033.1
30 SE NEW RVR IN 0613      69                N/A     4/11   2/11
27 SE WRIGHTSVLE 0608   58 62   90/ 12/ 17 1032.1
5 SE WRIGHTSVLE  0608   52 56   70/ 12/ 19 1033.3
225 S CAPE HAT   0550   62 72   60/ 17/ 21 1032.0    6/10   3/10
41 SE CHARLESTON 0550   65 72  100/ 17/ 21 1030.6    6/ 7   2/10

$$




USA.gov is the U.S. government's official web portal to all federal, state and local government web resources and services.